Regional Weather Roundup
Issued by NWS

Home | Current Version | Previous Version | Text Only | Print | Product List | Glossary Off
Versions: 1 2 3 4 5 6 7 8 9 10 11 12 13 14 15 16 17 18 19 20 21 22 23 24 25 26 27 28 29 30 31 32 33 34 35 36 37 38 39 40 41 42 43 44 45 46 47 48 49 50

514
ASUS43 KOAX 100410
RWRNE

WEATHER ROUNDUP FOR NEBRASKA
NATIONAL WEATHER SERVICE OMAHA NE
1000 PM CST TUE FEB 09 2016

NOTES: SATELLITE DATA IS BEING USED TO AUGMENT CLOUD COVER ABOVE
       12000 FEET.
       "FAIR" INDICATES FEW OR NO CLOUDS BELOW 12,000 FEET WITH NO
       SIGNIFICANT WEATHER AND/OR OBSTRUCTIONS TO VISIBILITY.

  * THESE STATIONS DO NOT REPORT WEATHER SUCH AS RAIN...SNOW OR FOG.

NEZ001>004-019>022-054>056-100500-
NEBRASKA PANHANDLE

CITY           SKY/WX    TMP DP  RH WIND       PRES   REMARKS
SCOTTSBLUFF    CLEAR     37  28  70 NW9       30.17F WCI  30
ALLIANCE       CLEAR     38  29  70 W18       30.12F WCI  28
CHADRON        CLEAR     37  29  72 W15       30.11F WCI  28
KIMBALL        CLEAR     37  27  65 W18       30.20F WCI  27
SIDNEY         CLEAR     37  28  70 W12       30.18S WCI  29
$$

NEZ057>060-069>072-079>082-100500-
SOUTHWEST NEBRASKA

CITY           SKY/WX    TMP DP  RH WIND       PRES   REMARKS
NORTH PLATTE   CLOUDY    34  27  75 CALM      30.13F
IMPERIAL       CLEAR     37  29  72 W13       30.15F WCI  29
LEXINGTON      CLOUDY    32  25  76 SW5       30.15F WCI  27
MCCOOK         CLOUDY    34  27  75 S5        30.17F WCI  30
OGALLALA       CLEAR     33  28  85 W9        30.14F WCI  25
$$

NEZ005>010-023>029-035>040-094-100500-
NORTH CENTRAL NEBRASKA

CITY           SKY/WX    TMP DP  RH WIND       PRES   REMARKS
VALENTINE      CLOUDY    35  28  75 W3        30.09F
AINSWORTH      CLOUDY    35  27  73 W7        30.08F WCI  29
BROKEN BOW     CLOUDY    31  25  78 SW6       30.11F WCI  25
O`NEILL        CLOUDY    28  19  70 S7        30.10F WCI  21
ORD            CLOUDY    28  20  71 S6        30.11F WCI  22
THEDFORD       CLOUDY    35  31  87 SW7       30.09F WCI  29
$$

NEZ041-046>049-061>064-073>077-083>087-100500-
SOUTH CENTRAL NEBRASKA

CITY           SKY/WX    TMP DP  RH WIND       PRES   REMARKS
GRAND ISLAND   CLOUDY    24  15  68 S9        30.19F WCI  14
AURORA         CLOUDY    23  14  70 S7        30.19F WCI  14
HASTINGS       CLOUDY    23  15  71 S7        30.17F WCI  15
HEBRON         CLOUDY    21  14  74 SW3       30.23F
HOLDREGE       CLOUDY    28  21  72 SW10      30.16F WCI  19
YORK           CLOUDY    23  16  74 SW8       30.20F WCI  14
$$

NEZ011>018-030>034-042>045-100500-
NORTHEAST NEBRASKA

CITY           SKY/WX    TMP DP  RH WIND       PRES   REMARKS
NORFOLK        CLOUDY    25  15  66 S7        30.16F WCI  17
ALBION         CLOUDY    25  17  69 S3        30.15F
BLAIR          CLOUDY    20  15  79 CALM      30.21F
COLUMBUS *     CLOUDY    25   9  50 SW6       30.20S WCI  18
FREMONT        CLOUDY    18  13  80 CALM      30.21F
WAYNE          CLOUDY    18  13  81 S5        30.18F WCI  11
$$

NEZ050>053-065>068-078-088>093-100500-
SOUTHEAST NEBRASKA

CITY           SKY/WX    TMP DP  RH WIND       PRES   REMARKS
LINCOLN        CLOUDY    23  13  65 CALM      30.24F
OMAHA EPPLEY   CLOUDY    23  14  68 W3        30.23F
BEATRICE       MOCLDY    21  16  79 W5        30.24F WCI  15
FALLS CITY     CLEAR     19  10  68 CALM      30.26F
NEBRASKA CITY  PTCLDY    19  11  71 NW5       30.25F WCI  13
PLATTSMOUTH    PTCLDY    20  13  74 SW5       30.23F WCI  14
$$

NEZ044-045-051>053-067-100500-
OMAHA AREA

CITY           SKY/WX    TMP DP  RH WIND       PRES   REMARKS
OMAHA EPPLEY   CLOUDY    23  14  68 W3        30.23F
BLAIR          CLOUDY    20  15  79 CALM      30.21F
FREMONT        CLOUDY    18  13  80 CALM      30.21F
MILLARD        CLOUDY    23  14  68 CALM      30.23F
OFFUTT AFB     PTCLDY    21  13  73 W2        30.23F
PLATTSMOUTH    PTCLDY    20  13  74 SW5       30.23F WCI  14
WAHOO          FAIR      18  12  79 S5        30.22F WCI  11
$$




USA.gov is the U.S. government's official web portal to all federal, state and local government web resources and services.